This demonstration page uses our WeatherBlox Daily Observations layout. Learn more.

Left ArrowRight Arrow

39.92423, -83.80882

Hourly Observations for February 27, 2020

Temp ( °F °C ) Dew Point ( °F °C ) Humidity (%) Winds ( mph kmh ) Pressure ( in mb ) Visibility ( mi km ) Precip ( " mm )
12:24 am 00:24 Cloudy with Light Snow 27 -3 23 -5 86 86 NW 16 26 30.01 1016 9 14 0.00 0.00
12:56 am 00:56 Cloudy with Light Snow 25 -3.9 24 -4.4 96 96 NW 17 28 29.98 1015 7 11 0.00 0.00
1:26 am 01:26 Cloudy with Light Snow 27 -3 25 -4 93 93 WNW 13 20 30.01 1016 8 13 0.00 0.00
1:56 am 01:56 Windy with Snow Likely 26 -3.3 25 -3.9 96 96 WNW 20 31 29.99 1016 7 11 0.00 0.00
2:56 am 02:56 Cloudy with Light Snow 25 -3.9 24 -4.4 96 96 WNW 18 30 30.00 1016 8 13 0.00 0.00
3:32 am 03:32 Cloudy with Light Snow 25 -4 25 -4 100 100 WNW 17 28 30.02 1017 5 8 0.00 0.00
3:56 am 03:56 Cloudy with Light Snow 25 -3.9 23 -5 92 92 W 18 30 30.00 1016 5 8 0.00 0.00
4:38 am 04:38 Windy with Snow Likely 25 -4 21 -6 86 86 W 22 35 30.04 1017 8 13 0.00 0.00
4:56 am 04:56 Cloudy with Light Snow 24 -4.4 21 -6.1 88 88 W 17 28 30.02 1017 9 14 0.00 0.00
5:46 am 05:46 Cloudy with Light Snow 25 -4 19 -7 80 80 W 17 28 30.07 1018 9 14 0.00 0.00
5:56 am 05:56 Cloudy with Light Snow 24 -4.4 20 -6.7 84 84 W 18 30 30.04 1017 9 14 0.00 0.00
6:56 am 06:56 Cloudy with Light Snow 23 -5 20 -6.7 88 88 W 17 28 30.05 1018 9 14 0.00 0.00
7:56 am 07:56 Cloudy with Light Snow 23 -5 19 -7.2 85 85 W 18 30 30.07 1018 9 14 0.00 0.00
8:56 am 08:56 Cloudy 24 -4.4 17 -8.3 75 75 W 21 33 30.09 1019 10 16 0.00 0.00
9:56 am 09:56 Cloudy 25 -3.9 17 -8.3 72 72 W 20 31 30.08 1019 10 16 N/A
10:56 am 10:56 Cloudy 26 -3.3 19 -7.2 75 75 W 20 31 30.08 1019 10 16 N/A
11:56 am 11:56 Cloudy 27 -2.8 21 -6.1 78 78 W 15 24 30.08 1019 9 14 0.00 0.00
12:56 pm 12:56 Windy with Snow Likely 28 -2.2 19 -7.2 69 69 W 24 39 30.06 1018 9 14 0.00 0.00
1:56 pm 13:56 Cloudy 29 -1.7 21 -6.1 72 72 W 22 35 30.04 1017 9 14 0.00 0.00
2:56 pm 14:56 Cloudy 29 -1.7 19 -7.2 66 66 W 25 41 30.04 1017 10 16 0.00 0.00
3:56 pm 15:56 Cloudy 29 -1.7 20 -6.7 69 69 W 25 41 30.06 1018 10 16 N/A
4:56 pm 16:56 Cloudy 29 -1.7 21 -6.1 72 72 W 23 37 30.06 1018 10 16 N/A
5:56 pm 17:56 Cloudy with Light Snow 28 -2.2 23 -5 81 81 W 16 26 30.06 1018 9 14 0.00 0.00
6:56 pm 18:56 Cloudy with Light Snow 28 -2.2 25 -3.9 88 88 W 14 22 30.07 1018 9 14 0.00 0.00
7:19 pm 19:19 Cloudy with Light Snow 28 -2 27 -3 93 93 WSW 13 20 30.08 1019 5 8 0.00 0.00
7:56 pm 19:56 Cloudy with Light Snow 27 -2.8 27 -2.8 100 100 WSW 10 17 30.07 1018 3 5 0.00 0.00
8:25 pm 20:25 Cloudy with Light Snow 27 -3 27 -3 100 100 WSW 7 11 30.09 1019 3 5 0.00 0.00
8:49 pm 20:49 Cloudy with Light Snow 27 -3 27 -3 100 100 WSW 8 13 30.09 1019 5 8 0.00 0.00
8:56 pm 20:56 Cloudy with Light Snow 27 -2.8 27 -2.8 100 100 W 8 13 30.06 1018 3 5 0.00 0.00
9:08 pm 21:08 Cloudy with Light Snow 27 -3 27 -3 100 100 WSW 7 11 30.09 1019 2 3 0.00 0.00
9:14 pm 21:14 Cloudy with Light Snow 27 -3 27 -3 100 100 WSW 8 13 30.09 1019 3 5 0.00 0.00
9:56 pm 21:56 Cloudy with Light Snow 28 -2.2 27 -2.8 96 96 WSW 7 11 30.06 1018 9 14 0.00 0.00
10:56 pm 22:56 Cloudy with Light Snow 28 -2.2 28 -2.2 100 100 WSW 10 17 30.04 1017 6 10 0.00 0.00
11:56 pm 23:56 Cloudy 28 -2.2 28 -2.2 100 100 WSW 10 17 30.04 1017 9 14 0.00 0.00

Powered by AerisWeather